Regional Weather Roundup
Issued by NWS

Home | Current Version | Previous Version | Text Only | Print | Product List | Glossary Off
Versions: 1 2 3 4 5 6 7 8 9 10 11 12 13 14 15 16 17 18 19 20 21 22 23 24 25 26 27 28 29 30 31 32 33 34 35 36 37 38 39 40 41 42 43 44 45 46 47 48 49 50

000
ASUS43 KOAX 271810
RWRNE

WEATHER ROUNDUP FOR NEBRASKA
NATIONAL WEATHER SERVICE OMAHA NE
100 PM CDT TUE JUN 27 2017

NOTES: SATELLITE DATA IS BEING USED TO AUGMENT CLOUD COVER ABOVE
       12000 FEET.
       "FAIR" INDICATES FEW OR NO CLOUDS BELOW 12,000 FEET WITH NO
       SIGNIFICANT WEATHER AND/OR OBSTRUCTIONS TO VISIBILITY.

  * THESE STATIONS DO NOT REPORT WEATHER SUCH AS RAIN...SNOW OR FOG.

NEZ001>004-019>022-054>056-271900-
NEBRASKA PANHANDLE

CITY           SKY/WX    TMP DP  RH WIND       PRES   REMARKS
SCOTTSBLUFF    CLOUDY    88  54  31 S6        29.78R
6HR MIN TEMP:  63; 6HR MAX TEMP:  89;

ALLIANCE       SUNNY     82  56  40 S23G29    29.79F
6HR MIN TEMP:  60; 6HR MAX TEMP:  83;

CHADRON        CLOUDY    86  55  34 SW14G24   29.71S
6HR MIN TEMP:  63; 6HR MAX TEMP:  87;

GORDON         FAIR      81  57  44 S13G20    29.75F
6HR MIN TEMP:  59; 6HR MAX TEMP:  81;

KIMBALL        SUNNY     86  52  30 SW9       29.86F
SIDNEY         SUNNY     82  57  42 S16G24    29.86F
6HR MIN TEMP:  60; 6HR MAX TEMP:  84;

$$

NEZ057>060-069>072-079>082-271900-
SOUTHWEST NEBRASKA

CITY           SKY/WX    TMP DP  RH WIND       PRES   REMARKS
NORTH PLATTE   CLOUDY    69  62  78 SE15      29.87F
6HR MIN TEMP:  61; 6HR MAX TEMP:  70;

IMPERIAL       SUNNY     80  58  46 SE17      29.85F
6HR MIN TEMP:  59; 6HR MAX TEMP:  80;

LEXINGTON      CLOUDY    75  63  65 S18G24    29.90F
MCCOOK         CLOUDY    73  64  73 SE12G22   29.89F
6HR MIN TEMP:  61; 6HR MAX TEMP:  72;

OGALLALA       SUNNY     80  59  47 S9G21     29.84F
$$

NEZ005>010-023>029-035>040-094-271900-
NORTH CENTRAL NEBRASKA

CITY           SKY/WX    TMP DP  RH WIND       PRES   REMARKS
VALENTINE      SUNNY     83  56  39 S24G38    29.77F
6HR MIN TEMP:  59; 6HR MAX TEMP:  84;

AINSWORTH      MOSUNNY   78  59  53 S25G33    29.83F
BROKEN BOW     CLOUDY    79  61  53 SE23G30   29.89F
6HR MIN TEMP:  58; 6HR MAX TEMP:  79;

O`NEILL        SUNNY     79  55  44 S23       29.88F
ORD            SUNNY     78  57  48 SE18G28   29.88F
6HR MIN TEMP:  57; 6HR MAX TEMP:  78;

THEDFORD       CLOUDY    79  61  53 S22G29    29.85F
$$

NEZ041-046>049-061>064-073>077-083>087-271900-
SOUTH CENTRAL NEBRASKA

CITY           SKY/WX    TMP DP  RH WIND       PRES   REMARKS
GRAND ISLAND   MOSUNNY   77  63  61 SE22G30   29.94F
6HR MIN TEMP:  57; 6HR MAX TEMP:  78;

AURORA         SUNNY     77  60  56 S20G26    29.94F
HASTINGS       PTSUNNY   78  62  57 S13       29.94F
6HR MIN TEMP:  58; 6HR MAX TEMP:  78;

HEBRON         MOSUNNY   80  64  58 SE18G24   29.95F
HOLDREGE       CLOUDY    75  62  64 S18G25    29.90F
KEARNEY *      CLOUDY    77  63  61 S21       29.92F
YORK           SUNNY     75  61  60 S18G24    29.95F
$$

NEZ011>018-030>034-042>045-271900-
NORTHEAST NEBRASKA

CITY           SKY/WX    TMP DP  RH WIND       PRES   REMARKS
NORFOLK        SUNNY     76  53  44 S22G31    29.93F
6HR MIN TEMP:  54; 6HR MAX TEMP:  77;

ALBION         SUNNY     77  57  49 S18G28    29.93F
BLAIR          SUNNY     75  58  54 S15G23    30.00F
FREMONT        SUNNY     76  59  55 SE13G22   29.99F
TEKAMAH        SUNNY     78  52  40 SE15G25   29.98F
6HR MIN TEMP:  51; 6HR MAX TEMP:  78;

WAYNE          SUNNY     76  55  47 S20G26    29.95F
$$

NEZ050>053-065>068-078-088>093-271900-
SOUTHEAST NEBRASKA

CITY           SKY/WX    TMP DP  RH WIND       PRES   REMARKS
LINCOLN        SUNNY     77  61  57 SE17      29.98F
6HR MIN TEMP:  57; 6HR MAX TEMP:  77;

OMAHA EPPLEY   PTSUNNY   77  58  51 S21G26    30.00F
6HR MIN TEMP:  57; 6HR MAX TEMP:  77;

BEATRICE       PTSUNNY   76  63  64 S14G22    29.98F
FALLS CITY     MOSUNNY   76  62  62 S16G24    30.02F
6HR MIN TEMP:  53; 6HR MAX TEMP:  76;

NEBRASKA CITY  MOSUNNY   74  63  69 SE12G18   30.01F
PLATTSMOUTH    SUNNY     75  58  57 SE17G23   30.01F
$$

NEZ044-045-051>053-067-271900-
OMAHA AREA

CITY           SKY/WX    TMP DP  RH WIND       PRES   REMARKS
OMAHA EPPLEY   PTSUNNY   77  58  51 S21G26    30.00F
6HR MIN TEMP:  57; 6HR MAX TEMP:  77;

BLAIR          SUNNY     75  58  54 S15G23    30.00F
FREMONT        SUNNY     76  59  55 SE13G22   29.99F
MILLARD        MOSUNNY   76  62  60 SE17G23   29.99F
OFFUTT AFB     SUNNY     76  58  54 SE17G24   30.00F
PLATTSMOUTH    SUNNY     75  58  57 SE17G23   30.01F
WAHOO          CLOUDY    76  56  49 SE20G26   29.98F
$$




USA.gov is the U.S. government's official web portal to all federal, state and local government web resources and services.